Home   Weather   Kawasaki   Past weeks

Flag for Japan Past Weather in Kawasaki, Japan — Yesterday and Last 2 Weeks

Now
61 °F

Passing clouds.


Feels Like: 61 °F
Forecast: 44 / 56 °F
Wind: 25 mph from Southwest

Location: Tokyo International Airport

Current Time: Dec 9, 2016 at 4:48:48 pm

Latest Report: Dec 9, 2016 at 4:00 pm


Visibility: N/A

Pressure: 29.71 "Hg

Humidity: 42%

Dew Point: 37 °F

Location of KawasakiLocation

Past Weather in Kawasaki — Graph

°F

Kawasaki Temperature Yesterday

Maximum temperature yesterday: 57 °F (at 2:00 pm)
Minimum temperature yesterday: 39 °F (at 5:30 am)
Average temperature yesterday: 49 °F

High & Low Weather Summary for the Past Weeks

 TemperatureHumidityPressure
High64 °F (Dec 1, 5:30 pm)100% (Nov 24, 3:30 pm)30.51 "Hg (Nov 24, 3:30 pm)
Low36 °F (Nov 25, 5:30 am)33% (Dec 2, 11:30 am)29.68 "Hg (Dec 9, 3:00 pm)
Average52 °F63%30.07 "Hg
* Reported Nov 24 3:00 pm — Dec 9 3:47 pm, Kawasaki, Weather by CustomWeather, © 2016

Note: Actual official high and low records may vary slightly from our data, if they occured in-between our weather recording intervals... More about our weather records

Advertising

Kawasaki Weather History for the Previous 24 Hours

Scroll right to see more
 ConditionsComfort  
Time TempWeatherWind HumidityBarometerVisibility
3:47 pm
Fri, Dec 9
61 °FPassing clouds.22 mph45%29.71 "HgN/A
3:30 pm61 °FPassing clouds.22 mph42%29.71 "HgN/A
3:00 pm63 °FPassing clouds.26 mph42%29.68 "HgN/A
2:30 pm63 °FPassing clouds.25 mph42%29.71 "HgN/A
1:30 pm63 °FPassing clouds.25 mph42%29.71 "HgN/A
1:00 pm63 °FPassing clouds.22 mph42%29.74 "HgN/A
12:30 pm63 °FPassing clouds.29 mph42%29.74 "HgN/A
12:00 pm63 °FPassing clouds.30 mph42%29.77 "HgN/A
11:45 am63 °FPassing clouds.26 mph42%29.77 "HgN/A
11:30 am63 °FPassing clouds.24 mph42%29.77 "HgN/A
11:00 am63 °FPassing clouds.21 mph45%29.80 "HgN/A
10:47 am63 °FPassing clouds.21 mph42%29.80 "HgN/A
10:30 am61 °FPassing clouds.23 mph45%29.83 "HgN/A
10:00 am59 °FPassing clouds.15 mph51%29.83 "HgN/A
9:30 am52 °FPassing clouds.6 mph62%29.86 "HgN/A
9:00 am50 °FPassing clouds.3 mph62%29.89 "HgN/A
8:30 am48 °FPassing clouds.1 mph54%29.89 "HgN/A
8:00 am46 °FPassing clouds.6 mph57%29.92 "HgN/A
7:30 am45 °FPassing clouds.5 mph61%29.92 "HgN/A
7:00 am45 °FPassing clouds.5 mph61%29.92 "HgN/A
6:30 am43 °FPassing clouds.6 mph71%29.92 "HgN/A
6:00 am45 °FPassing clouds.7 mph71%29.92 "HgN/A
5:30 am46 °FPassing clouds.6 mph66%29.92 "HgN/A
5:00 am45 °FPassing clouds.1 mph66%29.95 "HgN/A
4:30 am45 °FPassing clouds.5 mph66%29.95 "HgN/A
4:00 am45 °FPassing clouds.6 mph66%29.95 "HgN/A
3:30 am46 °FPartly cloudy.5 mph62%29.98 "HgN/A
3:00 am48 °FPassing clouds.8 mph58%29.98 "HgN/A
2:30 am48 °FPartly cloudy.7 mph62%29.98 "HgN/A
2:00 am48 °FPassing clouds.3 mph66%30.01 "HgN/A
1:30 am52 °FPassing clouds.6 mph67%30.01 "HgN/A
1:00 am52 °FPassing clouds.6 mph67%30.01 "HgN/A
12:30 am54 °FPassing clouds.6 mph58%30.01 "HgN/A
12:00 am54 °FPartly cloudy.7 mph54%30.04 "HgN/A
11:30 pm
Thu, Dec 8
54 °FPassing clouds.9 mph58%30.04 "HgN/A
11:00 pm54 °FPassing clouds.9 mph54%30.04 "HgN/A
10:30 pm54 °FPassing clouds.8 mph54%30.07 "HgN/A
10:00 pm54 °FPassing clouds.7 mph51%30.07 "HgN/A
9:30 pm52 °FPassing clouds.6 mph54%30.07 "HgN/A
9:00 pm50 °FPassing clouds.6 mph54%30.07 "HgN/A
8:30 pm50 °FClear.10 mph54%30.07 "Hg10 mi
8:00 pm50 °FClear.12 mph50%30.07 "Hg10 mi
7:30 pm50 °FPassing clouds.13 mph50%30.07 "HgN/A
7:00 pm50 °FClear.13 mph50%30.07 "Hg10 mi
6:30 pm50 °FPassing clouds.12 mph47%30.07 "HgN/A
6:00 pm54 °FPassing clouds.9 mph41%30.07 "HgN/A
5:30 pm54 °FPassing clouds.9 mph44%30.07 "HgN/A
5:00 pm55 °FPassing clouds.9 mph41%30.07 "HgN/A
4:30 pm55 °FPassing clouds.9 mph41%30.04 "HgN/A
4:00 pm55 °FPartly sunny.8 mph38%30.04 "HgN/A
Weather by CustomWeather, © 2016

See weather overviewHow to use our weather pages